Location: East Horndon
(51.5667°N, 0.3500°E)
Time: 09:49:54
(UTC+00:00)

Cosmos 2228 Rocket - Pass Details

Date: 08 November 2025
Orbit: 614 x 645 km, 82.5° (Epoch: 11 December)

Event Time Altitude Azimuth Distance (km) Brightness Sun altitude
Exits shadow 05:03:27 43° 275° (W) 871 3.3 -19.0°
Maximum altitude 05:03:45 44° 287° (WNW) 863 3.3 -18.9°
Drops below altitude 10° 05:07:59 10° 360° (N) 2,002 5.6 -18.3°
Sets 05:10:20 0° 7° (N) 2,918 6.6 -17.9°
